Regional Weather Roundup
Issued by NWS Green Bay, WI

Home | Current Version | Previous Version | Text Only | Print | Product List | Glossary On
Versions: 1 2 3 4 5 6 7 8 9 10 11 12 13 14 15 16 17 18 19 20 21 22 23 24 25 26 27 28 29 30 31 32 33 34 35 36 37 38 39 40 41 42 43 44 45 46 47 48 49 50
000
ASUS43 KGRB 232010
RWRGRB

NORTH-CENTRAL AND NORTHEAST WISCONSIN REGIONAL WEATHER ROUNDUP
NATIONAL WEATHER SERVICE GREEN BAY WI
300 PM CDT WED APR 23 2014

WIZ005-009-010>012-018-019-232100-
NORTH CENTRAL WISCONSIN

CITY           SKY/WX    TMP DP  RH WIND       PRES   REMARKS
IRONWOOD       CLOUDY    54  25  32 E10       30.04F
MANITOWISH WTR PTSUNNY   51  20  29 S6        30.08F
ARBOR VITAE    CLOUDY    57  21  25 SE5       30.08F
EAGLE RIVER    CLOUDY    53  15  22 SE6       30.08F
LAND O LAKES   CLOUDY    53  16  23 SE7       30.09F
RHINELANDER    PTSUNNY   52  21  29 E7        30.09F
PHILLIPS       CLOUDY    52  25  35 SE8       30.07F
ANTIGO         PTSUNNY   50  24  36 SE7       30.10F
TOMAHAWK       CLOUDY    53  21  28 SE5       30.08F
MERRILL        CLOUDY    51  24  34 SE8       30.10F
$$

WIZ013-073-232100-
NORTHEAST WISCONSIN

CITY           SKY/WX    TMP DP  RH WIND       PRES   REMARKS
IRON MOUNTAIN  PTSUNNY   53  15  22 S6        30.10F
MARINETTE      MOSUNNY   46  12  25 SE7       30.16F
OCONTO         MOSUNNY   46  -3  12 SE7       30.17F
$$

WIZ017-030-035>037-045-232100-
CENTRAL WISCONSIN

CITY           SKY/WX    TMP DP  RH WIND       PRES   REMARKS
MEDFORD        CLOUDY    48  25  39 E7        30.09F
WAUSAU         CLOUDY    50  23  34 S10       30.09F
MOSINEE        SUNNY     48  25  40 SE9G16    30.12F
MARSHFIELD     CLOUDY    50  24  36 SE9G18    30.10F
WISC RAPIDS    CLOUDY    52  18  26 SE5       30.11F
STEVENS POINT  CLOUDY    48  20  33 SE9       30.12F
WAUPACA        CLOUDY    54  23  30 S6        30.13F
SHAWANO        PTSUNNY   52  22  30 SE7       30.14F
CLINTONVILLE   CLOUDY    50  21  32 SE7       30.14F
$$

WIZ038-039-048-051-232100-
FOX VALLEY

CITY           SKY/WX    TMP DP  RH WIND       PRES   REMARKS
NWS GREEN BAY  PTSUNNY   48  25  40 NE9       30.16F
APPLETON       PTSUNNY   48  21  34 VRB6      30.14F
OSHKOSH        CLOUDY    49  24  37 E6        30.14F
FOND DU LAC    CLOUDY    50  28  42 NE9       30.14F
$$

WIZ022-050-052-232100-
EAST CENTRAL WISCONSIN

CITY           SKY/WX    TMP DP  RH WIND       PRES   REMARKS
STURGEON BAY   MOSUNNY   45  10  24 NE8       30.18S
MANITOWOC      PTSUNNY   45  28  51 E12       30.17F
SHEBOYGAN      MOSUNNY   46  24  42 NE13      30.16F
$$

LMZ563-521-522-541>543-232100-
LAKESHORE

STATION/POSITION TIME  TEMP    WIND        PRES    VSBY  WAVE
                       AIR SEA DIR/SP/G                  HT/PER
                 (UTC) (F)     (DEG/KT/KT) (MB)    (MI)  (FT/S)
SHEBOYGAN LKSHOR 2000   36      70/  8/  8 1022.6F
KEWAUNEE LKSHORE 2000   38      90/  4/  6 1022.9F
TWO RIVERS CG    1900   40                   N/A       6   1
NORTHPORT PIER   2000   37     140/  8/  9 1021.7F
SISTER BAY LKSHO 1900          110/  9/ 14   N/A
STURGEON BAY CG  2000   41      70/  4     1022.6   3 1/2  1
MENOMINEE LKSHOR 2000   39      80/  3/  4 1022.3S
$$



USA.gov is the U.S. government's official web portal to all federal, state and local government web resources and services.